Retour au catalogue

FENGYUN 1C DEB

LostPO
NORAD 47019·DEBRIS·🇨🇳 China

Lancé May 10, 1999 depuis Taiyuan Satellite Launch Center

Loading…

Prochains Passages (prochaines 24 heures)

TLE

PériméSource: Space-Track

Époque: Aug 6, 2022, 03:34 UTC

1 47019U 99025FAV 22218.14913461  .00000679  00000-0  75502-3 0  9994
2 47019  98.4235 187.3750 0285491  64.8280 356.6865 13.58066052498086

Suivez FENGYUN 1C DEB en temps réel avec AllMySat

Download on the App Store